GW2085 Weather Reports


Display with metric or nautical units.
time (UTC)temp
F
wind
direction
speed
MPH
gust
MPH
rain 1hr
in
rain 24hr
in
rain mn
in
humidity
%
barometer
mb
20260904223101 84 261 2.0 7.0 0.00 0.00 0.00 42 1012.5
20260904221605 84 229 2.0 7.0 0.00 0.00 0.00 42 1012.7
20260904220108 84 217 3.0 7.0 0.00 0.00 0.00 43 1012.6
20260904214555 84 250 3.0 8.0 0.00 0.00 0.00 44 1012.5
20260904213057 84 264 2.0 9.0 0.00 0.00 0.00 43 1012.8
20260904211601 84 209 3.0 7.0 0.00 0.00 0.00 45 1012.7
20260904210054 85 170 2.0 7.0 0.00 0.00 0.00 43 1012.9
20260904204554 85 177 2.0 6.0 0.00 0.00 0.00 41 1012.8
20260904203058 85 223 2.0 7.0 0.00 0.00 0.00 41 1012.9
20260904201555 86 259 2.0 7.0 0.00 0.00 0.00 37 1013.0
20260904200053 85 207 2.0 9.0 0.00 0.00 0.00 34 1013.0
20260904194631 84 272 3.0 8.0 0.00 0.00 0.00 38 1013.0
20260904193056 84 106 3.0 6.0 0.00 0.00 0.00 40 1013.2
20260904191553 82 182 2.0 6.0 0.00 0.00 0.00 41 1013.4
20260904190053 80 240 3.0 8.0 0.00 0.00 0.00 41 1013.6
20260904184558 81 273 3.0 6.0 0.00 0.00 0.00 39 1013.8
20260904183112 80 272 2.0 6.0 0.00 0.00 0.00 45 1013.9
20260904181606 79 217 2.0 4.0 0.00 0.00 0.00 45 1014.1
20260904180100 77 46 1.0 5.0 0.00 0.00 0.00 52 1014.1
20260904174601 76 229 0.0 3.0 0.00 0.00 0.00 55 1014.2
20260904173104 75 245 1.0 5.0 0.00 0.00 0.00 57 1014.3
20260904171618 75 65 1.0 4.0 0.00 0.00 0.00 59 1014.3
20260904170057 73 0 2.0 4.0 0.00 0.00 0.00 63 1014.4
20260904164555 71 19 1.0 3.0 0.00 0.00 0.00 67 1014.3
20260904163058 70 209 1.0 5.0 0.00 0.00 0.00 69 1014.3
20260904161557 68 278 0.0 4.0 0.00 0.00 0.00 74 1014.1
20260904160056 66 317 0.0 3.0 0.00 0.00 0.00 77 1014.2
20260904154556 65 0 0.0 3.0 0.00 0.00 0.00 81 1013.8
20260904153100 63 43 2.0 4.0 0.00 0.00 0.00 83 1013.9
20260904151604 62 53 3.0 7.0 0.00 0.00 0.00 83 1013.8
20260904150055 62 44 1.0 6.0 0.00 0.00 0.00 85 1013.9
20260904144555 61 44 2.0 4.0 0.00 0.00 0.00 86 1013.8
20260904143133 61 0 1.0 5.0 0.00 0.00 0.00 87 1013.7
20260904141607 61 126 0.0 2.0 0.00 0.00 0.00 88 1013.6
20260904140055 61 41 1.0 3.0 0.00 0.00 0.00 88 1013.5
20260904134600 61 114 0.0 2.0 0.00 0.00 0.00 89 1013.3
20260904133100 61 0 0.0 1.0 0.00 0.00 0.00 89 1013.0
20260904131556 61 0 0.0 1.0 0.00 0.00 0.00 89 1013.0
20260904130054 61 0 0.0 1.0 0.00 0.00 0.00 89 1013.0
20260904124601 61 207 0.0 1.0 0.00 0.00 0.00 90 1012.8
20260904123057 60 0 0.0 1.0 0.00 0.00 0.00 90 1012.6
20260904121558 61 0 0.0 0.0 0.00 0.00 0.00 90 1012.7
20260904114605 60 0 0.0 0.0 0.00 0.00 0.00 91 1012.6
20260904113105 60 0 0.0 0.0 0.00 0.00 0.00 91 1012.5
20260904111607 59 0 0.0 0.0 0.00 0.00 0.00 91 1012.7
20260904110100 59 0 0.0 0.0 0.00 0.00 0.00 91 1012.7
20260904104601 59 0 0.0 0.0 0.00 0.00 0.00 91 1012.5
20260904103056 59 0 0.0 0.0 0.00 0.00 0.00 91 1012.4
20260904101602 58 0 0.0 0.0 0.00 0.00 0.00 91 1012.3
20260904100059 57 0 0.0 0.0 0.00 0.00 0.00 91 1012.2
20260904094604 57 0 0.0 0.0 0.00 0.00 0.00 91 1012.3
20260904093103 57 0 0.0 0.0 0.00 0.00 0.00 90 1012.2
20260904091601 58 0 0.0 0.0 0.00 0.00 0.00 91 1012.3
20260904090108 57 0 0.0 0.0 0.00 0.00 0.00 90 1012.3
20260904084556 58 0 0.0 0.0 0.00 0.00 0.00 90 1012.5
20260904083056 58 0 0.0 0.0 0.00 0.00 0.00 89 1012.6
20260904081601 58 0 0.0 0.0 0.00 0.00 0.00 89 1012.7
20260904080058 58 0 0.0 0.0 0.00 0.00 0.00 89 1012.8
20260904074559 58 0 0.0 0.0 0.00 0.00 0.00 88 1012.9
20260904073054 59 0 0.0 0.0 0.00 0.00 0.00 88 1012.8
20260904071608 59 0 0.0 0.0 0.00 0.00 0.00 87 1012.8
20260904070059 59 0 0.0 0.0 0.00 0.00 0.00 87 1012.7
20260904064556 60 0 0.0 0.0 0.00 0.00 0.00 86 1012.7
20260904063101 60 0 0.0 0.0 0.00 0.00 0.00 86 1012.6
20260904061556 60 0 0.0 0.0 0.00 0.00 0.00 85 1012.8
20260904054554 61 0 0.0 0.0 0.00 0.00 0.00 84 1012.6
20260904053105 61 0 0.0 0.0 0.00 0.00 0.00 84 1012.5
20260904051557 62 0 0.0 0.0 0.00 0.00 0.00 84 1012.7
20260904050055 62 0 0.0 0.0 0.00 0.00 0.00 83 1012.8
20260904044603 62 0 0.0 0.0 0.00 0.00 0.00 82 1012.7
20260904043107 63 0 0.0 0.0 0.00 0.00 0.00 81 1012.7
20260904041601 63 0 0.0 0.0 0.00 0.00 0.00 80 1012.7
20260904040055 64 0 0.0 0.0 0.00 0.00 0.00 79 1013.0
20260904034556 64 0 0.0 0.0 0.00 0.00 0.00 78 1012.9
20260904033057 65 0 0.0 1.0 0.00 0.00 0.00 77 1012.6
20260904031556 66 0 0.0 1.0 0.00 0.00 0.00 76 1012.4
20260904030059 66 0 0.0 3.0 0.00 0.00 0.00 75 1012.4
20260904024600 67 0 0.0 4.0 0.00 0.00 0.00 74 1012.3
20260904023055 68 0 0.0 2.0 0.00 0.00 0.00 73 1012.3
20260904021600 69 257 0.0 3.0 0.00 0.00 0.00 70 1012.2
20260904020101 70 263 2.0 4.0 0.00 0.00 0.00 67 1012.2
20260904014604 71 201 2.0 5.0 0.00 0.00 0.00 65 1012.3
20260904013114 73 264 1.0 5.0 0.00 0.00 0.00 61 1012.4
20260904011602 74 265 2.0 7.0 0.00 0.00 0.00 61 1012.3
20260904010056 75 207 4.0 6.0 0.00 0.00 0.00 59 1012.4
20260904004609 76 272 2.0 7.0 0.00 0.00 0.00 58 1012.3
20260904003055 77 244 2.0 6.0 0.00 0.00 0.00 56 1012.3
20260904001607 76 210 2.0 8.0 0.00 0.00 0.00 57 1012.3
20260904000103 77 205 3.0 9.0 0.00 0.00 0.00 56 1012.4
20260903234558 79 217 1.0 6.0 0.00 0.00 0.00 55 1012.2
20260903233056 80 275 4.0 8.0 0.00 0.00 0.00 52 1012.3
20260903231606 80 226 2.0 7.0 0.00 0.00 0.00 52 1012.4
20260903230058 81 89 3.0 9.0 0.00 0.00 0.00 51 1012.4
20260903224554 81 213 2.0 10.0 0.00 0.00 0.00 50 1012.5